Rome, OR

10:12 PM MDT on August 17, 2017 (GMT -0600)
Rome State

Weather History for KREO - November, 2012

Change the Weather History Date:

Thursday, November 8, 2012

  Actual Average Record
Temperature  
Mean Temperature 44 °F 40 °F  
Max Temperature 54 °F 53 °F 73 °F (2016)
Min Temperature 34 °F 26 °F 16 °F (1948)
Degree Days  
Heating Degree Days 21 25  
Month to date heating degree days 132 193  
Since 1 July heating degree days 679 950  
Cooling Degree Days 0 0  
Month to date cooling degree days 0 0  
Year to date cooling degree days 674 507  
Moisture  
Dew Point 27 °F    
Average Humidity 55    
Maximum Humidity 82    
Minimum Humidity 28    
Precipitation  
Precipitation 0.00 in 0.02 in 0.42 in (1949)
Month to date precipitation 0.00 0.23  
Year to date precipitation 4.50 7.70  
Sea Level Pressure  
Sea Level Pressure 29.64 in    
Wind  
Wind Speed 5 mph (East)    
Max Wind Speed 18 mph    
Max Gust Speed 25 mph    
T = Trace of Precipitation, MM = Missing Value Source: NWS Daily Summary

Daily Weather History Graph

Daily Weather History Graph

Search for Another Location

Airport or City:

Trip Planner

Search our weather history database for the weather conditions in past years. The results will help you decide how hot, cold, wet, or windy it might be!

Date:

Astronomy

Nov. 08, 2012 Rise Set
Actual Time 6:34 AM PST 4:35 PM PST
Civil Twilight 6:04 AM PST 5:05 PM PST
Nautical Twilight 5:31 AM PST 5:38 PM PST
Astronomical Twilight 4:58 AM PST 6:11 PM PST
Moon 12:27 AM PST (11/8) 1:25 PM PST (11/8)
Length of Visible Light 11h 00m
Length of Day
10h 00m
Waning Crescent, 32% of the Moon is Illuminated
Nov 8
Waning Crescent
Nov 13
New
Nov 20
First Quarter
Nov 28
Full
Dec 6
Last Quarter

Hourly Weather History & Observations

Time (PST) Temp. Windchill Dew Point Humidity Pressure Visibility Wind Dir Wind Speed Gust Speed Precip Events Conditions
12:52 AM 36.0 °F 31.1 °F 30.0 °F 79% 29.75 in - NE 5.8 mph - N/A   Unknown
1:52 AM 37.0 °F 33.3 °F 30.0 °F 76% 29.73 in - ENE 4.6 mph - N/A   Unknown
2:52 AM 36.0 °F 31.1 °F 28.0 °F 73% 29.69 in - ENE 5.8 mph - N/A   Unknown
3:52 AM 33.1 °F - 27.0 °F 78% 29.68 in - Calm Calm - N/A   Unknown
4:52 AM 33.1 °F - 27.0 °F 78% 29.67 in - Calm Calm - N/A   Unknown
6:52 AM 32.0 °F - 27.0 °F 82% 29.66 in - Calm Calm - N/A   Unknown
7:52 AM 35.1 °F - 27.0 °F 72% 29.65 in - Calm Calm - N/A   Unknown
9:52 AM 42.1 °F 38.4 °F 27.0 °F 55% 29.61 in - NNE 5.8 mph - N/A   Unknown
10:52 AM 46.0 °F 41.9 °F 28.0 °F 50% 29.59 in - NE 8.1 mph - N/A   Unknown
11:52 AM 48.9 °F - 26.1 °F 41% 29.57 in - Variable 4.6 mph - N/A   Unknown
12:52 PM 53.1 °F - 21.0 °F 29% 29.55 in - Calm Calm - N/A   Unknown
1:52 PM 50.0 °F - 28.0 °F 43% 29.57 in - Variable 5.8 mph - N/A   Unknown
2:52 PM 46.9 °F - 27.0 °F 46% 29.60 in - WNW 5.8 mph - N/A   Unknown
3:52 PM 44.1 °F 39.0 °F 28.0 °F 53% 29.61 in - NE 9.2 mph - N/A   Unknown
4:52 PM 42.1 °F 36.1 °F 28.0 °F 58% 29.62 in - North 10.4 mph - N/A   Unknown
5:52 PM 41.0 °F 39.0 °F 25.0 °F 53% 29.64 in - South 3.5 mph - N/A   Unknown
6:52 PM 37.9 °F 34.4 °F 27.0 °F 65% 29.63 in - SW 4.6 mph - N/A   Unknown
7:52 PM 37.9 °F - 26.1 °F 62% 29.64 in - Calm Calm - N/A   Unknown
8:52 PM 37.9 °F 30.9 °F 26.1 °F 62% 29.64 in - SSW 10.4 mph - N/A   Unknown
9:52 PM 37.0 °F 28.9 °F 24.1 °F 59% 29.65 in - SSW 12.7 mph - N/A   Unknown
10:52 PM 36.0 °F 26.3 °F 24.1 °F 62% 29.65 in - SSW 16.1 mph 24.2 mph N/A   Unknown
11:52 PM 35.1 °F 25.5 °F 24.1 °F 64% 29.65 in - SSW 15.0 mph - N/A   Unknown